Regional Weather Roundup
Issued by NWS Kansas City/Pleasant Hill, MO

Home | Current Version | Previous Version | Graphics & Text | Print | Product List | Glossary Off
Versions: 1 2 3 4 5 6 7 8 9 10 11 12 13 14 15 16 17 18 19 20 21 22 23 24 25 26 27 28 29 30 31 32 33 34 35 36 37 38 39 40 41 42 43 44 45 46 47 48 49 50

000
ASUS43 KEAX 220504
RWREAX

WEATHER ROUNDUP FOR EASTERN KANSAS AND NORTHWEST MISSOURI
NATIONAL WEATHER SERVICE KANSAS CITY/PLEASANT HILL MO
1200 AM CDT MON SEP 22 2014

KSZ040-057-103>105-MOZ028-029-037-043-220600-
...KANSAS CITY METROPOLITAN AREA...

CITY           SKY/WX    TMP DP  RH WIND       PRES   REMARKS
K.C. INTL      CLEAR     54  48  80 N6        30.25S
K.C. DOWNTOWN  CLEAR     59  51  75 CALM      30.24R
LEES SUMMIT    CLEAR     57  49  74 N5        30.25R
OLATHE - IXD   CLEAR     54  49  83 N8        30.25S
OLATHE - OJC   CLEAR     60  49  66 N3        30.24S
LAWRENCE       CLEAR     51  48  89 NW3       30.26R

$$

MOZ001>008-011>017-020>025-030>033-038>040-044>046-053-054-220600-
...NORTHERN AND CENTRAL MISSOURI...

CITY           SKY/WX    TMP DP  RH WIND       PRES   REMARKS
ST. JOSEPH     CLEAR     49  48  97 N5        30.26R
MOSBY          CLEAR     52  52 100 CALM      30.24F
WHITEMAN AFB   CLEAR     55  50  83 N3        30.23R
CLINTON        CLEAR     54  52  94 N5        30.23R
SEDALIA        CLEAR     56  49  77 N5        30.22S
WARSAW         NOT AVBL
MARSHALL       CLEAR     57  52  82 N3        30.23F
CHILLICOTHE      N/A     53  50  89 CALM      30.25S
MOBERLY        CLEAR     54  46  76 N3        30.23R
KIRKSVILLE     CLEAR     51  49  92 NW5       30.24R

$$

MOZ041-047>049-056>058-063>065-088>090-097-220600-
...EASTERN AND SOUTHERN MISSOURI...

CITY           SKY/WX    TMP DP  RH WIND       PRES   REMARKS
ST. LOUIS INTL CLEAR     59  50  72 NW5       30.18S
SPIRIT OF STL  CLEAR     56  51  84 CALM      30.17F
COLUMBIA       CLEAR     56  50  80 N5        30.22R
JEFFERSON CITY CLEAR     61  50  67 NE5       30.21R
MEXICO         CLEAR    N/A N/A N/A NW3       30.21S
ROLLA          CLEAR     57  48  72 N8        30.19R
LEBANON        CLEAR     59  48  67 N5        30.22R
OSAGE BEACH    CLEAR     59  46  63 N6        30.21R
SPRINGFIELD    CLEAR     59  49  69 N6        30.21R
BRANSON        CLEAR     57  50  77 N5        30.21S
NEVADA         CLEAR     55  50  82 N6        30.24
JOPLIN         CLEAR     60  50  69 NE6       30.23R
WEST PLAINS    CLEAR     59  48  67 N6        30.20R

$$

IAZ060-094-KSZ022-034>040-054-083-096-NEZ052-066-093-220600-
...KANSAS...SOUTHEAST NEBRASKA AND IOWA...

CITY           SKY/WX    TMP DP  RH WIND       PRES   REMARKS
TOPEKA         CLEAR     57  51  80 CALM      30.26S
MANHATTAN      CLEAR     53  48  83 CALM      30.27S
EMPORIA        CLEAR     59  49  69 N5        30.27R
CHANUTE        CLEAR     59  51  75 N5        30.24S
WICHITA        PTCLDY    63  46  54 NE8       30.26S
OMAHA          CLEAR     53  51  93 NW3       30.27S
LINCOLN        CLEAR     50  47  89 N3        30.29S
FALLS CITY     CLEAR     54  50  86 NW3       30.26R
LAMONI         CLEAR     51  48  89 NW5       30.25S
DES MOINES     CLEAR     58  48  69 N6        30.24S

$$



USA.gov is the U.S. government's official web portal to all federal, state and local government web resources and services.